Home   Weather   Bissau   Past weeks

Flag for Guinea-Bissau Past Weather in Bissau, Guinea-Bissau — Yesterday and Last 2 Weeks

Now
72 °F

Clear.


Feels Like: 67 °F
Forecast: 72 / 95 °F
Wind: 2 mph from North

Location: Ziguinchor Airport

Current Time: Dec 10, 2016 at 5:13:29 am

Latest Report: Dec 10, 2016 at 4:00 am


Visibility: 10 mi

Pressure: 29.89 "Hg

Humidity: 94%

Dew Point: 70 °F

Location of BissauLocation

Past Weather in Bissau — Graph

°F

Bissau Temperature Yesterday

Maximum temperature yesterday: 91 °F (at 2:00 pm)
Minimum temperature yesterday: 68 °F (at 7:00 am)
Average temperature yesterday: 80 °F

High & Low Weather Summary for the Past Weeks

 TemperatureHumidityPressure
High100 °F (Dec 1, 4:00 pm)100% (Nov 29, 6:00 am)29.95 "Hg (Nov 29, 6:00 am)
Low68 °F (Dec 9, 7:00 am)27% (Dec 8, 3:00 pm)29.80 "Hg (Nov 25, 3:00 pm)
Average82 °F71%29.87 "Hg
* Reported Nov 25 6:00 am — Dec 10 4:00 am, Bissau, Weather by CustomWeather, © 2016

Note: Actual official high and low records may vary slightly from our data, if they occured in-between our weather recording intervals... More about our weather records

Advertising

Bissau Weather History for the Previous 24 Hours

Scroll right to see more
 ConditionsComfort  
Time TempWeatherWind HumidityBarometerVisibility
4:00 am
Sat, Dec 10
72 °FClear.2 mph94%29.89 "Hg10 mi
3:30 am72 °FClear.2 mph94%29.89 "Hg10 mi
12:00 am72 °FClear.2 mph88%29.92 "Hg10 mi
11:00 pm
Fri, Dec 9
73 °FClear.2 mph83%29.92 "Hg10 mi
10:00 pm75 °FClear.2 mph78%29.92 "Hg10 mi
9:00 pm77 °FClear.5 mph74%29.89 "Hg5 mi
8:00 pm79 °FClear.2 mph74%29.86 "Hg10 mi
7:00 pm82 °FClear.2 mph62%29.86 "Hg10 mi
6:00 pm88 °FSunny.5 mph49%29.86 "Hg10 mi
5:00 pm91 °FSunny.5 mph41%29.83 "Hg10 mi
4:00 pm91 °FSunny.5 mph36%29.83 "Hg10 mi
3:00 pm91 °FSunny.7 mph38%29.83 "Hg10 mi
2:00 pm91 °FSunny.7 mph38%29.86 "Hg10 mi
1:00 pm90 °FSunny.7 mph41%29.89 "Hg10 mi
12:00 pm88 °FSunny.7 mph38%29.92 "Hg10 mi
11:00 am86 °FSunny.5 mph35%29.92 "Hg10 mi
10:00 am82 °FSunny.7 mph48%29.95 "Hg10 mi
9:00 am77 °FSunny.7 mph54%29.92 "Hg10 mi
8:00 am72 °FSunny.5 mph73%29.89 "Hg10 mi
7:00 am68 °FClear.5 mph88%29.89 "Hg10 mi
6:00 am70 °FClear.2 mph88%29.86 "Hg10 mi
5:00 am73 °FClear.2 mph94%29.86 "Hg10 mi
Weather by CustomWeather, © 2016

See weather overviewHow to use our weather pages